Terminal Aerodrome Forecast
Issued by NWS

Home | Current Version | Previous Version | Text Only | Print | Product List | Glossary On
Versions: 1 2 3 4 5 6 7 8 9 10 11 12 13 14 15
131
FTUS43 KAPX 040850 AAB
TAFMBL
TAF AMD
KMBL 040850Z 0409/0506 35011G20KT P6SM -SHRA SCT012 OVC022
     FM041800 35015G24KT P6SM VCSH BKN025
     FM050300 36010KT P6SM SCT035
      AMD LTD TO CLD VIS AND WIND=

USA.gov is the U.S. government's official web portal to all federal, state and local government web resources and services.